Погода в Серове

Поиск расширенной информации на нашем сайте:

Полезная информация:

Новости сайта



02.01.2020
Опубликован Долгосрочный прогноз погоды по городам России и ближнего зарубежья на январь 2020 года.
Карты: Прогноз на январь и февраль 2020 года, Сравнение прогнозируемой аномалии приземной температуры воздуха на январь 2020 года по разным моделям.




Погода в Серове - сегодня

Время (UTC), дата Ветер
(°,м/с) 
Видим.   Явления Облачность Т
(°С)
Тd
(°С)
f(%) Тe
(°С)
Pmin
(гПа)
dP
(гПа)
Po
(мм)
O2
(г/м3)
Тmin Tmax R s Состояние
почвы
12 27.03.20 300 (СЗ) 6-11{13}  20000 м    6/6 600 м 
[Cu Sc]
+4.5 -9.7 35 +2  1020.6  0.5  754  300           
15 27.03.20 300 (СЗ) 3{12}  10 км    ясно 
+2.4 -9.2 42 +1  1021.9  1.1  755  302    +5.1       
18 27.03.20 280 (З) 10 км    ясно 
+0 -9.1 50 -2  1022.3  0.3  755  305           
21 27.03.20 280 (З) 10 км    ясно 
-0.1 -9.6 49 -2  1021.9  -0.4  755  305           
00 28.03.20 250 (З) 10 км    ясно 
-2.6 -9.7 58 -4  1021.8  -0.2  754  308           
03 28.03.20 270 (З) 20000 м    4/4 600 м 
[Sc]
-0.5 -9.3 51 -1  1020.6  -1.1  754  305  -3.1      мокрый или
старый снег
50-90% 
06 28.03.20 280 (З) 3{10}  20000 м    8/0 верхняя 
[Ci fib]
+7 -7.4 35 +6  1019.5  -0.6  753  297           
09 28.03.20 290 (З) 4{11}  20000 м    9/9 600 м 
[Cu Sc]
+7.9 -8.2 31 +7  1018.5  -0.9  752  295           
12 28.03.20 260 (З) 20000 м    10/4 600 м верхняя 
[Cu Sc|Cs]
+8 -8.7 30 +7  1017.4  -1.1  752  295           
15 28.03.20 260 (З) 2{10}  10 км    6/3 600 м верхняя 
[Sc|Cs]
+5.4 -6.3 43 +5  1017.4  -0.1  752  298    +8.4       
18 28.03.20 250 (З) 10 км    10/10 600 м 
[Sc]
+2.8 -5.5 54 +4  1016.5  -0.1  751  300           
21 28.03.20 230 (ЮЗ) 10 км    8/8 600 м 
[Sc]
+2.4 -4.8 59 +2  1015.1  -1.4  750  300           
00 29.03.20 210 (ЮЗ) 10 км    9/9 600 м 
[Sc]
+2.7 -4 61 +3  1014  -1.1  749  299           
03 29.03.20 230 (ЮЗ) 20000 м    8/8 600 м верхняя 
[Sc|Ci fib]
+3.1 -4.2 59 +4  1013.2  -1.1  748  299  +2.1      мокрый или
старый снег
50-90% 
06 29.03.20 250 (З) 20000 м    8/5 600 м верхняя 
[Sc|Cs]
+7.2 -2.4 50 +7  1012.2  -0.8  748  294           
09 29.03.20 250 (З) 4-13{13}  20000 м    9/5 600 м верхняя 
[Cu Sc|Cs]
+13.4 -4.3 29 +13  1010.1  -1.8  746  287           
12 29.03.20 220 (ЮЗ) 3{13}  20000 м    10/4 600 м верхняя 
[Cu Sc|Cs]
+12.3 -3.9 32 +12  1009.3  -0.8  746  288           
15 29.03.20 230 (ЮЗ) 4-10{10}  10 км    10/3 600 м верхняя 
[Sc|Cs]
+9.9 -2.5 42 +9  1009.3  0.1  746  290    +13.6       
18 29.03.20 230 (ЮЗ) 1{11}  10 км    8/0 верхняя 
[Cs]
+6.9 -2.8 50 +8  1009.9  0.4  746  293           
21 29.03.20 230 (ЮЗ) 10 км    3/0 верхняя 
[Cs]
+4.9 -3.7 54 +5  1009  -1  745  295           
00 30.03.20 240 (ЮЗ) 10 км    ясно 
+4.2 -3.8 56 +4  1008.7  -0.3  745  296           
03 30.03.20 220 (ЮЗ) 20000 м    9/9 600 м 
[Sc]
+3.7 -3.1 61 +5  1009.2  0.5  745  297  +2.9      <0.5  мокрый или
старый снег
10-40% 
06 30.03.20 200 (Ю) 20000 м    10/10 600 м 
[Sc]
+6.9 -2.1 53 +6  1008.6  -0.4  745  293           
09 30.03.20 190 (Ю) 20000 м    10/4 600 м верхняя 
[Sc|Cs]
+10.5 -1.6 43 +10  1007  -1.4  744  289           
12 30.03.20 240 (ЮЗ) 4-10{11}  20000 м    10/3 600 м верхняя 
[Sc|Cs]
+13.5 -6.8 24 +13  1006.5  -0.3  744  286           
Время (UTC), дата Ветер
(°,м/с) 
Видим.   Явления Облачность Т
(°С)
Тd
(°С)
f(%) Тe
(°С)
Pmin
(гПа)
dP
(гПа)
Po
(мм)
O2
(г/м3)
Тmin Tmax R s Состояние
почвы

Для получения пояснительной информации подведите курсор к названию столбца.

ПОГОДА в Серове - архив

Всё, что Вы хотите узнать о погоде в Серове - удобно и подробно!

Выберите нужную дату (начиная с 1 января 2019* года) и нажмите кнопку "Найти".
Будут отображены архивные сводки погоды по пункту Серов, начиная с указанной даты.


Отображать данные в формате CSV (для использования в таблицах Excel)


Внимание! Наш архив погоды предназначен исключительно для личного некоммерческого использования в познавательных целях. Если Вам необходимы официальные справки о состоянии погоды (для производственных, юридических, коммерческих и т.п. целей), обращайтесь в органы Росгидромета.

*Примечание: данная дата относится к архиву по метеостанциям СССР (Россия, СНГ, Балтия).
Архив по метеостанциям Зарубежной Европы и Азии (кроме Китая) хранится 10 дней, по другим регионам земного шара (Китай, Африка, Америка, Австралия, Океания) - 1 день.

Серов - район местоположения метеостанции


Название, широта, долгота, высота метеостанции:
Серов 59.6°ш. 60.5°д. 130 м над ур. моря [Российская Федерация]

Дополнительная информация

В oтличие oт бoльшинства пoгoдных сайтoв мы публикуем пoдрoбную метеoинфoрмацию в детальнoм прoфессиoнальнoм фoрмате.

Характеристики температуры и влажнoсти вoздуха измеряются на высoте 2 м в тени вдали oт зданий и деревьев.
Скoрoсть ветра измеряется на высoте 10 м (на урoвне рoста челoвека скoрoсть ветра ниже в 1.5-2 раза). Если метеoстанция нахoдится в гoрoде или в лесу, тo скoрoсть ветра занижена на 2-4 м/с пo сравнению с oткрытым местoм. Скoрoсть ветра над акватoриями крупных рек и oзёр, а также на вершинах хoлмoв на 2-5 м/с выше, чем в oбычных услoвиях.
Атмoсфернoе давление в разных тoчках местнoсти мoжет значительнo oтличаться oт давления на метеoстанции, в зависимoсти oт услoвий рельефа (при пoдъёме на 10 м давление пoнижается примернo на 1 мм рт.ст.).